weather.gov     
National Weather Service

Terminal Aerodrome Forecast
NWS Homepage
This page is being discontinued on March 12, 2014.
The same data is available at this site. Please update your bookmarks.
Thank you, and we apologize for the inconvenience.
Please send an email to SR-SRH.Webmaster@noaa.gov with any concerns.


Current Version
Previous Version:    01  02  03  04  05  06  07  08  09  10  11  12  13  14  15  16  17  18  19  
[Printable]
881
FTUS45 KPUB 192320
TAFALS
TAF
KALS 192320Z 2000/2024 VRB05KT P6SM FEW070 SCT140
     FM201900 18008KT P6SM FEW060 SCT100 BKN200=


881
FTUS45 KPUB 192320
TAFALS
TAF
KALS 192320Z 2000/2024 VRB05KT P6SM FEW070 SCT140
     FM201900 18008KT P6SM FEW060 SCT100 BKN200=




U.S. Dept. of Commerce
NOAA National Weather Service
1325 East West Highway
Silver Spring, MD 20910
E-mail: w-nws.webmaster@noaa.gov
Page last modified: May 16, 2007
NATIONAL WEATHER SERVICE: for Safety, for Work, for Fun - FOR LIFE